Location: Rooftop Observatory
(39.0308°N, 87.1711°W)
Time: 07:02:27
(UTC-05:00)

Terra - Visible Passes

Search period start: 28 March 2017 00:00
Search period end: 07 April 2017 00:00
Orbit: 702 x 703 km, 98.2° (Epoch: 26 March)

Date Brightness Start Highest point End Pass type
(mag) Time Alt. Az. Time Alt. Az. Time Alt. Az.
28 Mar 4.4 22:31:05 14° N 22:31:05 14° N 22:31:49 10° N visible
29 Mar 4.8 23:14:14 12° NNW 23:14:14 12° NNW 23:14:38 10° NNW visible
30 Mar 4.2 22:18:31 15° N 22:18:31 15° N 22:19:26 10° N visible
31 Mar 4.5 23:01:40 15° NNW 23:01:40 15° NNW 23:02:29 10° NNW visible
01 Apr 4.1 22:05:57 15° NNE 22:05:57 15° NNE 22:06:59 10° N visible
02 Apr 4.3 22:49:07 17° N 22:49:07 17° N 22:50:16 10° N visible
03 Apr 4.1 21:53:24 14° NNE 21:53:24 14° NNE 21:54:26 10° NNE visible
03 Apr 4.8 23:32:17 12° NNW 23:32:17 12° NNW 23:32:44 10° NNW visible
04 Apr 4.1 22:36:34 19° N 22:36:34 19° N 22:37:59 10° N visible
05 Apr 4.1 21:40:51 13° NE 21:40:51 13° NE 21:41:44 10° NNE visible
05 Apr 4.5 23:19:44 16° NNW 23:19:44 16° NNW 23:20:42 10° NNW visible
06 Apr 3.9 22:24:01 20° N 22:24:01 20° N 22:25:38 10° N visible
